Weather History for Michigan City, IN

Change the Weather History Date:

Thursday, February 28, 2013

  Actual Average (KVPZ) Record (KVPZ)
Temperature  
Mean Temperature 34 °F 32 °F  
Max Temperature 35 °F 40 °F 54 °F (2000)
Min Temperature 32 °F 24 °F -3 °F (2014)
Degree Days  
Heating Degree Days 32 33  
Month to date heating degree days 1049  
Since 1 July heating degree days 4732  
Cooling Degree Days 0 0  
Month to date cooling degree days 0  
Year to date cooling degree days 0  
Moisture  
Dew Point 31 °F    
Average Humidity 92    
Maximum Humidity 100    
Minimum Humidity 80    
Precipitation  
Precipitation 0.00 in 0.05 in 0.21 in (2012)
Month to date precipitation 1.42  
Year to date precipitation 3.17  
Sea Level Pressure  
Sea Level Pressure 29.85 in    
Wind  
Wind Speed 9 mph (North)    
Max Wind Speed 18 mph    
Max Gust Speed 28 mph    
Visibility 9 miles    
Events Rain , Snow    
T = Trace of Precipitation, MM = Missing Value Source: NWS Daily Summary

Daily Weather History Graph

Daily Weather History Graph

Search for Another Location

Airport:

Trip Planner

Search our weather history database for the weather conditions in past years. The results will help you decide how hot, cold, wet, or windy it might be!

Date:

Astronomy

Feb. 28, 2013 Rise Set
Actual Time 6:23 AM CST 5:36 PM CST
Civil Twilight 5:55 AM CST 6:04 PM CST
Nautical Twilight 5:23 AM CST 6:37 PM CST
Astronomical Twilight 4:51 AM CST 7:09 PM CST
Moon 9:07 PM CST (2/28) 7:29 AM CST (2/28)
Length of Visible Light 12h 09m
Length of Day
11h 13m
Waning Gibbous, 90% of the Moon is Illuminated
Feb 28
Waning Gibbous
Mar 4
Last Quarter
Mar 11
New
Mar 19
First Quarter
Mar 27
Full

Hourly Weather History & Observations

Time (CST) Temp. Windchill Dew Point Humidity Pressure Visibility Wind Dir Wind Speed Gust Speed Precip Events Conditions
12:15 AM 33.8 °F 27.7 °F 33.8 °F 100% 29.65 in 10.0 mi North 6.9 mph - N/A Rain Light Rain
12:35 AM 33.8 °F 27.7 °F 32.0 °F 93% 29.65 in 10.0 mi North 6.9 mph - N/A   Drizzle
12:55 AM 33.8 °F 27.7 °F 32.0 °F 93% 29.66 in 10.0 mi North 6.9 mph - N/A   Drizzle
1:15 AM 33.8 °F 27.7 °F 32.0 °F 93% 29.66 in 10.0 mi North 6.9 mph - N/A Rain Light Rain
1:35 AM 33.8 °F 27.7 °F 32.0 °F 93% 29.67 in 10.0 mi North 6.9 mph - N/A   Overcast
1:55 AM 33.8 °F 28.6 °F 32.0 °F 93% 29.67 in 10.0 mi North 5.8 mph - N/A   Overcast
2:15 AM 33.8 °F 27.7 °F 32.0 °F 93% 29.67 in 10.0 mi North 6.9 mph - N/A Rain Light Rain
2:35 AM 33.8 °F 27.7 °F 32.0 °F 93% 29.68 in 10.0 mi North 6.9 mph - N/A Rain Light Rain
2:55 AM 33.8 °F 27.7 °F 32.0 °F 93% 29.68 in 10.0 mi North 6.9 mph - N/A   Light Drizzle
3:15 AM 33.8 °F 27.7 °F 32.0 °F 93% 29.69 in 10.0 mi North 6.9 mph - N/A Rain Light Rain
3:35 AM 33.8 °F 26.4 °F 32.0 °F 93% 29.70 in 10.0 mi North 9.2 mph 16.1 mph N/A   Light Drizzle
3:55 AM 33.8 °F 25.8 °F 32.0 °F 93% 29.70 in 10.0 mi North 10.4 mph - N/A Rain Light Rain
4:35 AM 33.8 °F 25.8 °F 32.0 °F 93% 29.71 in 10.0 mi NNW 10.4 mph - N/A   Drizzle
4:55 AM 33.8 °F 27.7 °F 32.0 °F 93% 29.72 in 7.0 mi NNW 6.9 mph - N/A Rain Light Rain
5:15 AM 33.8 °F 25.8 °F 32.0 °F 93% 29.73 in 7.0 mi North 10.4 mph - N/A Rain Light Rain
5:35 AM 32.0 °F 24.8 °F 32.0 °F 100% 29.74 in 10.0 mi North 8.1 mph - N/A   Overcast
5:55 AM 33.8 °F 27.0 °F 32.0 °F 93% 29.74 in 10.0 mi North 8.1 mph - N/A   Overcast
6:15 AM 33.8 °F 27.0 °F 32.0 °F 93% 29.75 in 10.0 mi North 8.1 mph - N/A   Overcast
6:35 AM 33.8 °F 26.4 °F 32.0 °F 93% 29.75 in 10.0 mi North 9.2 mph - N/A Rain Light Rain
6:55 AM 33.8 °F 26.4 °F 32.0 °F 93% 29.76 in 10.0 mi North 9.2 mph - N/A   Overcast
7:15 AM 33.8 °F 24.3 °F 32.0 °F 93% 29.77 in 10.0 mi North 13.8 mph 18.4 mph N/A   Overcast
7:35 AM 33.8 °F 27.7 °F 32.0 °F 93% 29.78 in 10.0 mi North 6.9 mph 10.4 mph N/A   Overcast
7:55 AM 33.8 °F 26.4 °F 32.0 °F 93% 29.79 in 10.0 mi North 9.2 mph - N/A   Overcast
8:15 AM 33.8 °F 26.4 °F 32.0 °F 93% 29.80 in 10.0 mi North 9.2 mph - N/A   Overcast
8:35 AM 33.8 °F 26.4 °F 32.0 °F 93% 29.81 in 10.0 mi North 9.2 mph - N/A   Overcast
8:55 AM 33.8 °F 25.3 °F 32.0 °F 93% 29.82 in 10.0 mi North 11.5 mph - N/A   Overcast
9:15 AM 33.8 °F 26.4 °F 32.0 °F 93% 29.82 in 10.0 mi North 9.2 mph - N/A   Overcast
9:35 AM 33.8 °F 26.4 °F 32.0 °F 93% 29.82 in 10.0 mi North 9.2 mph - N/A   Overcast
9:55 AM 35.6 °F 28.6 °F 32.0 °F 87% 29.83 in 10.0 mi North 9.2 mph - N/A   Overcast
10:15 AM 35.6 °F 28.6 °F 32.0 °F 87% 29.84 in 10.0 mi North 9.2 mph 16.1 mph N/A   Overcast
10:35 AM 35.6 °F 27.5 °F 32.0 °F 87% 29.85 in 10.0 mi North 11.5 mph - N/A   Overcast
10:55 AM 35.6 °F 28.0 °F 32.0 °F 87% 29.85 in 10.0 mi North 10.4 mph 19.6 mph N/A   Overcast
11:15 AM 35.6 °F 28.0 °F 32.0 °F 87% 29.86 in 10.0 mi North 10.4 mph 17.3 mph N/A   Overcast
11:35 AM 35.6 °F 27.5 °F 32.0 °F 87% 29.86 in 10.0 mi North 11.5 mph 16.1 mph N/A   Overcast
11:55 AM 35.6 °F 28.6 °F 32.0 °F 87% 29.87 in 10.0 mi North 9.2 mph - N/A   Overcast
12:35 PM 35.6 °F 27.1 °F 32.0 °F 87% 29.87 in 10.0 mi North 12.7 mph 18.4 mph N/A   Overcast
12:55 PM 35.6 °F 28.0 °F 32.0 °F 87% 29.87 in 10.0 mi North 10.4 mph - N/A   Overcast
1:15 PM 35.6 °F 27.1 °F 32.0 °F 87% 29.88 in 10.0 mi North 12.7 mph 17.3 mph N/A   Overcast
1:35 PM 35.6 °F 26.2 °F 32.0 °F 87% 29.88 in 10.0 mi North 15.0 mph 18.4 mph N/A   Overcast
1:55 PM 35.6 °F 25.9 °F 30.2 °F 81% 29.89 in 10.0 mi North 16.1 mph 21.9 mph N/A   Overcast
2:15 PM 33.8 °F 25.3 °F 32.0 °F 93% 29.89 in 10.0 mi North 11.5 mph 20.7 mph N/A   Overcast
2:35 PM 33.8 °F 23.5 °F 32.0 °F 93% 29.90 in 10.0 mi North 16.1 mph 23.0 mph N/A   Overcast
2:55 PM 33.8 °F 25.3 °F 32.0 °F 93% 29.92 in 5.0 mi NNW 11.5 mph 27.6 mph N/A   Overcast
3:15 PM 32.0 °F 21.6 °F 32.0 °F 100% 29.92 in 3.0 mi NNW 15.0 mph 21.9 mph N/A Snow Light Snow
3:35 PM 32.0 °F 20.5 °F 32.0 °F 100% 29.92 in 4.0 mi North 18.4 mph 25.3 mph N/A Snow Light Snow
3:55 PM 32.0 °F 22.1 °F 32.0 °F 100% 29.94 in 4.0 mi NNW 13.8 mph 19.6 mph N/A Snow Light Snow
4:15 PM 32.0 °F 22.5 °F 32.0 °F 100% 29.94 in 5.0 mi NNW 12.7 mph 24.2 mph N/A   Overcast
4:35 PM 32.0 °F 21.6 °F 30.2 °F 93% 29.95 in 10.0 mi North 15.0 mph 24.2 mph N/A   Overcast
4:55 PM 32.0 °F 21.6 °F 30.2 °F 93% 29.96 in 10.0 mi North 15.0 mph 23.0 mph N/A   Overcast
5:15 PM 32.0 °F 22.1 °F 30.2 °F 93% 29.97 in 7.0 mi North 13.8 mph 20.7 mph N/A Rain Light Rain
5:35 PM 32.0 °F 21.2 °F 30.2 °F 93% 29.98 in 10.0 mi North 16.1 mph 21.9 mph N/A   Overcast
5:55 PM 32.0 °F 22.1 °F 30.2 °F 93% 29.99 in 10.0 mi North 13.8 mph 23.0 mph N/A   Overcast
6:15 PM 32.0 °F 22.1 °F 30.2 °F 93% 29.99 in 10.0 mi NNW 13.8 mph 18.4 mph N/A   Overcast
6:35 PM 32.0 °F 22.5 °F 30.2 °F 93% 30.00 in 10.0 mi North 12.7 mph 19.6 mph N/A   Overcast
6:55 PM 32.0 °F 24.8 °F 30.2 °F 93% 30.01 in 7.0 mi NNW 8.1 mph 23.0 mph N/A   Overcast
7:15 PM 32.0 °F 24.2 °F 30.2 °F 93% 30.01 in 3.0 mi NNW 9.2 mph 16.1 mph N/A Snow Light Snow
7:35 PM 32.0 °F 24.2 °F 30.2 °F 93% 30.00 in 5.0 mi NNW 9.2 mph 18.4 mph N/A Snow Light Snow
7:55 PM 32.0 °F 24.8 °F 30.2 °F 93% 30.00 in 10.0 mi NNW 8.1 mph - N/A   Overcast
8:15 PM 32.0 °F 24.2 °F 30.2 °F 93% 30.01 in 10.0 mi North 9.2 mph - N/A   Overcast
8:35 PM 32.0 °F 23.0 °F 30.2 °F 93% 30.01 in 10.0 mi NNW 11.5 mph 19.6 mph N/A   Overcast
9:15 PM 32.0 °F 23.0 °F 30.2 °F 93% 30.00 in 3.0 mi North 11.5 mph - N/A Snow Light Snow
9:35 PM 32.0 °F 22.5 °F 30.2 °F 93% 30.00 in 10.0 mi NNW 12.7 mph 17.3 mph N/A   Overcast
9:55 PM 32.0 °F 24.2 °F 30.2 °F 93% 30.01 in 10.0 mi North 9.2 mph - N/A   Overcast
10:15 PM 32.0 °F 22.5 °F 28.4 °F 87% 30.00 in 10.0 mi North 12.7 mph 21.9 mph N/A   Overcast
10:35 PM 32.0 °F 22.5 °F 26.6 °F 80% 30.00 in 10.0 mi North 12.7 mph - N/A   Overcast
10:55 PM 32.0 °F 23.6 °F 26.6 °F 80% 30.00 in 10.0 mi North 10.4 mph 17.3 mph N/A   Overcast
11:35 PM 32.0 °F 24.8 °F 26.6 °F 80% 30.00 in 10.0 mi North 8.1 mph - N/A   Overcast
11:55 PM 32.0 °F 27.5 °F 26.6 °F 80% 30.00 in 10.0 mi North 4.6 mph - N/A   Overcast